COSMOS 374 DEB

Satellite information

Favourite Embed

Satellite Type and Status

DEBRISIN ORBIT

Key statistics

Satellite COSMOS 374 DEB at a glance.

Uptime

19982

Days in orbit

Revolutions

≈ 14.7

Per day

Orbit

LEO

Low Earth Orbit

Inclination

62.9

Latest

Satellite identification and parameters

Extended collection of information and parameters for COSMOS 374 DEB.

Object identification

Identified? True

Debris? True

Object name: COSMOS 374 DEB

International designator: 1970-089R

Object number (NORAD): 4699

Object ID (CCSDS): 4699

Country: COMMONWEALTH OF INDEPENDENT STATES (CIS)

Current information (Y/N): Y

RCS size: SMALL

Orbital parameters

Period: 98.139 minutes

Inclination: 62.9175 deg

SMA: 7047.832 km

Apoapsis: 866.973 km

Periapsis: 472.422 km

RAAN: 106.7741 deg

Eccentricy: 0.0279909

Argument of periapsis: 154.7164 deg

Mean anomaly: 206.7929 deg

Mean motion: 14.67301685 rev/day

Mean motion (dot): 0.00007847 rev/day2

B* drag term: 0.00078233 1/REarth

Two-line elements (TLE)

Creation date: July 8, 2025, 2:27 a.m.

Reference frame: TEME

Reference center: EARTH

Epoch: July 7, 2025, 10:04 p.m. UTC

TLE line 0: 0 COSMOS 374 DEB

TLE line 1: 1 04699U 70089R 25188.91997343 .00007847 00000-0 78233-3 0 9993

TLE line 2: 2 04699 62.9175 106.7741 0279909 154.7164 206.7929 14.67301685661043

Live tracking on map

Real-time ground track for satellite COSMOS 374 DEB.

In-orbit conjunctions

A list of the most updated potential collisions computed for object COSMOS 374 DEB.

Target Orbit TCA Probability of collision Miss distance Type
CZ-2C R/B SSO 2025-04-20 02:31:18 0.0001738365 396.0 (m) ROCKET BODY
OBJECT E SSO 2024-12-23 17:59:57 0.002028406 79.0 (m) UNKNOWN

Associated space launch

The I2P satellites were the first soviet coorbital ASAT system.

COSMOS 374 DEB was lifted into orbit during the mission ‘Tsiklon-2 | I2P 4’, on board a Tsiklon-2 space rocket.

The launch took place on Oct. 23, 1970, 4:42 a.m. from 90/20.

For more information about the launch, click the button.

Launch to space Tsiklon-2 | I2P 4
Tsiklon-2 | I2P 4

Agency: N/A

Status: Launch Successful

Launch date: Oct. 23, 1970, 4:42 a.m. UTC

Rocket: Tsiklon-2

Launch pad: 90/20

Location: Baikonur Cosmodrome, Republic of Kazakhstan

...

Latest news about this satellite

There are no fresh news available about this satellite. Check back as we update our databases every day.


Newsletter sign-up

Weekly statistics, charts and insights to help you stay on top of the space industry.